Location: �quirre
(50.4736°N, 2.2351°E)
Time: 08:22:30
(UTC+00:00)

Cosmos 2333 Rocket - Pass Details

Date: 07 August 2020
Orbit: 837 x 864 km, 70.8° (Epoch: 20 September)

Event Time Altitude Azimuth Distance (km) Brightness Sun altitude
Rises 00:39:25 0° 326° (NNW) 3,456 6.1 -22.5°
Reaches altitude 10° 00:41:58 10° 321° (NW) 2,515 5.2 -22.5°
Maximum altitude 00:47:27 46° 250° (WSW) 1,144 2.6 -22.3°
Enters shadow 00:48:17 43° 225° (SW) 1,192 2.6 -22.2°
